User: anonymous   Login
Location: Franzen
(48.6167°N, 15.3833°E)
Time: 10:03:49
(UTC+00:00)
Language:

Explorer 11/Cluster Stage 4 - Orbit

View from above orbital plane
View from above orbital plane
View from above satellite
View from above satellite

Ground track
Ground track

The orbit data is extracted from the following two-line orbital elements,

1 00107U 61013A   21211.91161252  .00000516  00000-0  46519-4 0  9994
2 00107  28.7922  34.1160 0545515 236.0103 118.7476 14.09270832 23897
Epoch (UTC): 30 July 2021 21:52:43
Eccentricity: 0.0545515
inclination: 28.7922°
perigee height: 467 km
apogee height: 1257 km
right ascension of ascending node: 34.1160°
argument of perigee: 236.0103°
revolutions per day: 14.09270832
mean anomaly at epoch: 118.7476°
orbit number at epoch: 2389

The dashed part of the orbit path shows where the satellite is in the earth's shadow,  

DLR